SLI158 MMHO-MMML

Flight info

Callsign SLI158
Flight time 1h 2m
Altitude 32000
Route LIDUK1B LIDUK UJ7 MXL
Aircraft E170/M-SDE3GILORVW/S

Departure

Time 2026-04-22 04:39
Airport General Ignacio L. Pesqueira International Airport (MMHO)

Arrival

Time 2026-04-22 05:42
Airport General Rodolfo Sánchez Taboada International Airport (MMML)
Time Latitude Longitude Altitude Speed Heading
2026-04-22 04:11 29.09069 -111.05231 641 ft 0 kts 148°
2026-04-22 04:26 29.09077 -111.05237 640 ft 4 kts 147°
2026-04-22 04:27 29.09099 -111.05255 640 ft 4 kts 139°
2026-04-22 04:27 29.09115 -111.05278 640 ft 4 kts 110°
2026-04-22 04:27 29.09113 -111.05298 640 ft 1 kts 58°
2026-04-22 04:27 29.09112 -111.05301 640 ft 0 kts 58°
2026-04-22 04:32 29.09112 -111.05300 640 ft 0 kts 59°
2026-04-22 04:34 29.09113 -111.05298 640 ft 1 kts 59°
2026-04-22 04:34 29.09124 -111.05276 641 ft 5 kts 57°
2026-04-22 04:35 29.09150 -111.05230 642 ft 10 kts 59°
2026-04-22 04:35 29.09198 -111.05139 641 ft 16 kts 59°
2026-04-22 04:35 29.09256 -111.05031 643 ft 14 kts 59°
2026-04-22 04:35 29.09307 -111.04934 643 ft 12 kts 59°
2026-04-22 04:36 29.09350 -111.04908 644 ft 6 kts 309°
2026-04-22 04:36 29.09391 -111.04966 640 ft 12 kts 317°
2026-04-22 04:36 29.09463 -111.05017 642 ft 8 kts 20°
2026-04-22 04:36 29.09494 -111.04956 643 ft 12 kts 67°
2026-04-22 04:37 29.09543 -111.04857 639 ft 17 kts 59°
2026-04-22 04:37 29.09620 -111.04715 638 ft 25 kts 59°
2026-04-22 04:37 29.09719 -111.04528 640 ft 30 kts 59°
2026-04-22 04:37 29.09822 -111.04335 643 ft 21 kts 58°
2026-04-22 04:38 29.09848 -111.04252 645 ft 5 kts 58°
2026-04-22 04:38 29.09856 -111.04249 645 ft 1 kts 333°
2026-04-22 04:38 29.09862 -111.04266 645 ft 3 kts 252°
2026-04-22 04:38 29.09841 -111.04298 644 ft 8 kts 241°
2026-04-22 04:39 29.09801 -111.04373 642 ft 18 kts 238°
2026-04-22 04:39 29.09624 -111.04704 638 ft 94 kts 238°
2026-04-22 04:39 29.09124 -111.05639 792 ft 167 kts 237°
2026-04-22 04:39 29.08423 -111.06839 1676 ft 194 kts 234°
2026-04-22 04:40 29.07582 -111.08151 2663 ft 208 kts 235°
2026-04-22 04:40 29.06829 -111.09580 3784 ft 217 kts 240°
2026-04-22 04:40 29.06065 -111.11158 4816 ft 231 kts 240°
2026-04-22 04:40 29.05260 -111.12753 5933 ft 235 kts 239°
2026-04-22 04:41 29.04419 -111.14386 7028 ft 240 kts 240°
2026-04-22 04:41 29.03889 -111.16235 7812 ft 253 kts 261°
2026-04-22 04:41 29.04075 -111.18219 8026 ft 254 kts 289°
2026-04-22 04:41 29.05021 -111.19953 7996 ft 260 kts 314°
2026-04-22 04:42 29.06542 -111.21033 8017 ft 259 kts 335°
2026-04-22 04:42 29.08201 -111.21776 8019 ft 259 kts 339°
2026-04-22 04:42 29.09905 -111.22480 8023 ft 259 kts 339°
2026-04-22 04:42 29.11604 -111.23191 8027 ft 259 kts 338°
2026-04-22 04:43 29.13277 -111.23903 8029 ft 259 kts 338°
2026-04-22 04:43 29.14973 -111.24632 8120 ft 257 kts 338°
2026-04-22 04:43 29.16647 -111.25360 9085 ft 260 kts 338°
2026-04-22 04:43 29.18345 -111.26081 10067 ft 264 kts 339°
2026-04-22 04:44 29.20097 -111.26823 11016 ft 269 kts 338°
2026-04-22 04:44 29.21837 -111.27568 11878 ft 272 kts 338°
2026-04-22 04:44 29.23627 -111.28335 12696 ft 275 kts 338°
2026-04-22 04:44 29.25443 -111.29110 13513 ft 279 kts 337°
2026-04-22 04:45 29.27252 -111.29885 14342 ft 281 kts 336°
2026-04-22 04:45 29.29092 -111.30674 15181 ft 283 kts 336°
2026-04-22 04:45 29.30927 -111.31463 15994 ft 285 kts 336°
2026-04-22 04:45 29.32798 -111.32266 16743 ft 289 kts 335°
2026-04-22 04:46 29.34719 -111.33090 17375 ft 306 kts 335°
2026-04-22 04:46 29.36801 -111.33987 17712 ft 332 kts 335°
2026-04-22 04:46 29.39029 -111.34947 18097 ft 355 kts 335°
2026-04-22 04:46 29.41353 -111.36030 18817 ft 361 kts 328°
2026-04-22 04:47 29.43366 -111.37687 19719 ft 359 kts 317°
2026-04-22 04:47 29.45291 -111.39548 20690 ft 360 kts 316°
2026-04-22 04:47 29.47191 -111.41406 21529 ft 364 kts 316°
2026-04-22 04:47 29.49127 -111.43293 22349 ft 367 kts 316°
2026-04-22 04:48 29.51092 -111.45201 23090 ft 371 kts 316°
2026-04-22 04:48 29.53077 -111.47128 23767 ft 375 kts 316°
2026-04-22 04:48 29.55067 -111.49059 24427 ft 379 kts 316°
2026-04-22 04:48 29.57093 -111.51030 25104 ft 381 kts 316°
2026-04-22 04:49 29.59127 -111.53007 25770 ft 383 kts 316°
2026-04-22 04:49 29.61162 -111.54996 26408 ft 385 kts 316°
2026-04-22 04:49 29.63193 -111.56974 27019 ft 387 kts 315°
2026-04-22 04:49 29.65259 -111.58986 27621 ft 390 kts 315°
2026-04-22 04:50 29.67343 -111.61020 28211 ft 391 kts 315°
2026-04-22 04:50 29.69400 -111.63033 28748 ft 393 kts 315°
2026-04-22 04:50 29.71490 -111.65078 29273 ft 395 kts 315°
2026-04-22 04:50 29.73594 -111.67143 29768 ft 397 kts 315°
2026-04-22 04:51 29.75701 -111.69212 30254 ft 398 kts 315°
2026-04-22 04:51 29.77817 -111.71291 30711 ft 400 kts 315°
2026-04-22 04:51 29.79913 -111.73353 31162 ft 400 kts 314°
2026-04-22 04:51 29.82067 -111.75482 31142 ft 413 kts 314°
2026-04-22 04:52 29.84289 -111.77678 31153 ft 425 kts 315°
2026-04-22 04:52 29.86572 -111.79930 31024 ft 434 kts 315°
2026-04-22 04:52 29.88852 -111.82164 31042 ft 436 kts 315°
2026-04-22 04:53 29.93487 -111.86698 31048 ft 438 kts 315°
2026-04-22 04:53 29.98142 -111.91268 31050 ft 438 kts 315°
2026-04-22 04:54 30.02755 -111.95808 31049 ft 438 kts 315°
2026-04-22 04:54 30.07413 -112.00394 31049 ft 438 kts 315°
2026-04-22 04:55 30.12023 -112.04941 31062 ft 438 kts 315°
2026-04-22 04:55 30.16671 -112.09529 31066 ft 438 kts 315°
2026-04-22 04:56 30.21280 -112.14083 31051 ft 438 kts 315°
2026-04-22 04:56 30.25926 -112.18682 31053 ft 438 kts 315°
2026-04-22 04:57 30.30538 -112.23252 31056 ft 438 kts 315°
2026-04-22 04:57 30.35166 -112.27849 31068 ft 438 kts 315°
2026-04-22 04:58 30.39782 -112.32438 31112 ft 438 kts 315°
2026-04-22 04:58 30.44404 -112.37033 31092 ft 439 kts 315°
2026-04-22 04:59 30.49055 -112.41670 31096 ft 439 kts 315°
2026-04-22 04:59 30.53684 -112.46288 31095 ft 441 kts 315°
2026-04-22 05:00 30.58312 -112.50907 31091 ft 440 kts 314°
2026-04-22 05:00 30.62947 -112.55543 31096 ft 441 kts 314°
2026-04-22 05:01 30.67607 -112.60214 31098 ft 440 kts 314°
2026-04-22 05:01 30.72241 -112.64861 31094 ft 441 kts 314°
2026-04-22 05:02 30.76870 -112.69506 31095 ft 441 kts 314°
2026-04-22 05:02 30.81529 -112.74194 31092 ft 442 kts 314°
2026-04-22 05:03 30.86156 -112.78852 31094 ft 442 kts 314°
2026-04-22 05:03 30.90799 -112.83531 31017 ft 442 kts 314°
2026-04-22 05:04 30.95454 -112.88232 30990 ft 443 kts 314°
2026-04-22 05:04 31.00101 -112.92929 30998 ft 443 kts 314°
2026-04-22 05:05 31.04765 -112.97648 30999 ft 444 kts 314°
2026-04-22 05:05 31.09419 -113.02365 30992 ft 443 kts 314°
2026-04-22 05:06 31.14085 -113.07104 30989 ft 444 kts 314°
2026-04-22 05:06 31.18724 -113.11820 30991 ft 444 kts 314°
2026-04-22 05:07 31.22598 -113.15761 30992 ft 443 kts 314°
2026-04-22 05:07 31.27260 -113.20513 30990 ft 444 kts 314°
2026-04-22 05:08 31.31928 -113.25276 30993 ft 444 kts 314°
2026-04-22 05:08 31.36510 -113.30082 30991 ft 440 kts 307°
2026-04-22 05:09 31.40313 -113.35620 30988 ft 438 kts 303°
2026-04-22 05:09 31.44064 -113.41233 30990 ft 437 kts 303°
2026-04-22 05:10 31.47821 -113.46871 31008 ft 438 kts 303°
2026-04-22 05:10 31.51561 -113.52486 31009 ft 438 kts 303°
2026-04-22 05:11 31.55306 -113.58117 31011 ft 438 kts 303°
2026-04-22 05:11 31.59061 -113.63770 31013 ft 438 kts 303°
2026-04-22 05:12 31.62787 -113.69389 31009 ft 438 kts 303°
2026-04-22 05:12 31.66533 -113.75050 31000 ft 438 kts 303°
2026-04-22 05:13 31.70259 -113.80684 30999 ft 438 kts 303°
2026-04-22 05:13 31.74010 -113.86371 31005 ft 438 kts 303°
2026-04-22 05:14 31.77735 -113.92021 31001 ft 438 kts 303°
2026-04-22 05:14 31.81459 -113.97679 31001 ft 438 kts 303°
2026-04-22 05:15 31.85179 -114.03340 30998 ft 438 kts 303°
2026-04-22 05:15 31.88914 -114.09032 31000 ft 438 kts 303°
2026-04-22 05:16 31.92625 -114.14695 31001 ft 435 kts 303°
2026-04-22 05:16 31.94430 -114.17440 30940 ft 410 kts 302°
2026-04-22 05:16 31.96115 -114.20007 30952 ft 389 kts 302°
2026-04-22 05:17 31.99376 -114.25010 31014 ft 384 kts 302°
2026-04-22 05:17 32.02623 -114.29999 31012 ft 385 kts 302°
2026-04-22 05:18 32.07512 -114.37507 31019 ft 384 kts 302°
2026-04-22 05:18 32.10761 -114.42494 30954 ft 373 kts 302°
2026-04-22 05:19 32.12325 -114.44891 30469 ft 370 kts 301°
2026-04-22 05:19 32.13885 -114.47304 29853 ft 377 kts 301°
2026-04-22 05:19 32.15498 -114.49790 29220 ft 384 kts 302°
2026-04-22 05:19 32.17136 -114.52311 28600 ft 389 kts 302°
2026-04-22 05:20 32.18795 -114.54862 27983 ft 391 kts 302°
2026-04-22 05:20 32.20439 -114.57389 27346 ft 393 kts 302°
2026-04-22 05:20 32.22099 -114.59944 26727 ft 390 kts 302°
2026-04-22 05:20 32.23752 -114.62489 26102 ft 387 kts 302°
2026-04-22 05:21 32.25387 -114.65008 25458 ft 384 kts 302°
2026-04-22 05:21 32.26995 -114.67490 24839 ft 380 kts 302°
2026-04-22 05:21 32.28607 -114.69981 24224 ft 382 kts 302°
2026-04-22 05:21 32.30211 -114.72465 23592 ft 384 kts 302°
2026-04-22 05:22 32.31839 -114.74982 22958 ft 381 kts 302°
2026-04-22 05:22 32.33426 -114.77438 22350 ft 378 kts 302°
2026-04-22 05:22 32.35020 -114.79904 21724 ft 374 kts 302°
2026-04-22 05:22 32.36592 -114.82337 21084 ft 371 kts 302°
2026-04-22 05:23 32.38161 -114.84764 20453 ft 368 kts 302°
2026-04-22 05:23 32.39939 -114.86913 19829 ft 375 kts 319°
2026-04-22 05:23 32.42323 -114.88246 19192 ft 385 kts 341°
2026-04-22 05:23 32.45020 -114.88495 18564 ft 392 kts
2026-04-22 05:24 32.47659 -114.87606 17944 ft 397 kts 23°
2026-04-22 05:24 32.49879 -114.85725 17336 ft 397 kts 43°
2026-04-22 05:24 32.51497 -114.83086 16698 ft 394 kts 65°
2026-04-22 05:24 32.52226 -114.80026 16067 ft 385 kts 88°
2026-04-22 05:25 32.51993 -114.76915 15438 ft 372 kts 109°
2026-04-22 05:25 32.50891 -114.74280 15123 ft 350 kts 129°
2026-04-22 05:25 32.49475 -114.71967 15756 ft 345 kts 130°
2026-04-22 05:25 32.48173 -114.69826 17997 ft 298 kts 130°
2026-04-22 05:26 32.46963 -114.67796 19001 ft 312 kts 130°
2026-04-22 05:26 32.45629 -114.65564 18182 ft 346 kts 130°
2026-04-22 05:26 32.44222 -114.63226 17394 ft 349 kts 130°
2026-04-22 05:26 32.42814 -114.60909 16642 ft 345 kts 130°
2026-04-22 05:27 32.41445 -114.58649 15848 ft 329 kts 130°
2026-04-22 05:27 32.39899 -114.56788 15061 ft 307 kts 151°
2026-04-22 05:27 32.37969 -114.55925 14278 ft 289 kts 177°
2026-04-22 05:27 32.36062 -114.56175 13501 ft 276 kts 203°
2026-04-22 05:28 32.34393 -114.57263 12740 ft 271 kts 213°
2026-04-22 05:28 32.32825 -114.58461 11972 ft 270 kts 213°
2026-04-22 05:28 32.31262 -114.59686 11182 ft 268 kts 217°
2026-04-22 05:28 32.30016 -114.61310 10413 ft 267 kts 234°
2026-04-22 05:29 32.28959 -114.63136 9619 ft 267 kts 239°
2026-04-22 05:29 32.28414 -114.65197 8838 ft 269 kts 267°
2026-04-22 05:29 32.28786 -114.67329 8063 ft 266 kts 295°
2026-04-22 05:29 32.29746 -114.69192 7306 ft 262 kts 299°
2026-04-22 05:30 32.30683 -114.71029 6527 ft 259 kts 298°
2026-04-22 05:30 32.31592 -114.72828 5756 ft 257 kts 298°
2026-04-22 05:30 32.32522 -114.74630 4969 ft 255 kts 300°
2026-04-22 05:30 32.33488 -114.76373 4196 ft 252 kts 301°
2026-04-22 05:31 32.34448 -114.78082 3434 ft 250 kts 300°
2026-04-22 05:31 32.35405 -114.79810 2657 ft 249 kts 300°
2026-04-22 05:31 32.36336 -114.81518 2065 ft 238 kts 301°
2026-04-22 05:31 32.37200 -114.83088 2314 ft 229 kts 301°
2026-04-22 05:32 32.38078 -114.84676 2302 ft 228 kts 301°
2026-04-22 05:32 32.38974 -114.86175 2265 ft 217 kts 306°
2026-04-22 05:32 32.39883 -114.87539 2205 ft 217 kts 306°
2026-04-22 05:32 32.40874 -114.89047 2272 ft 238 kts 306°
2026-04-22 05:33 32.41860 -114.90557 2314 ft 221 kts 305°
2026-04-22 05:33 32.42750 -114.91926 2270 ft 199 kts 305°
2026-04-22 05:33 32.43553 -114.93163 2158 ft 185 kts 305°
2026-04-22 05:33 32.44317 -114.94338 2003 ft 175 kts 304°
2026-04-22 05:34 32.45044 -114.95487 2159 ft 180 kts 304°
2026-04-22 05:34 32.45839 -114.96765 2917 ft 206 kts 303°
2026-04-22 05:34 32.46748 -114.98222 2491 ft 234 kts 304°
2026-04-22 05:34 32.47708 -114.99717 2402 ft 217 kts 305°
2026-04-22 05:35 32.48630 -115.01028 2344 ft 197 kts 312°
2026-04-22 05:35 32.49638 -115.02036 2169 ft 185 kts 318°
2026-04-22 05:35 32.50641 -115.02976 1879 ft 178 kts 318°
2026-04-22 05:35 32.51545 -115.03847 1829 ft 161 kts 317°
2026-04-22 05:36 32.52361 -115.04660 1746 ft 146 kts 316°
2026-04-22 05:36 32.53102 -115.05429 1629 ft 144 kts 314°
2026-04-22 05:36 32.53941 -115.06342 2042 ft 171 kts 314°
2026-04-22 05:36 32.54793 -115.07260 2278 ft 160 kts 310°
2026-04-22 05:37 32.55376 -115.08235 2259 ft 134 kts 294°
2026-04-22 05:37 32.55753 -115.09148 2128 ft 115 kts 291°
2026-04-22 05:37 32.56102 -115.09995 1794 ft 114 kts 294°
2026-04-22 05:37 32.56473 -115.10807 1461 ft 115 kts 296°
2026-04-22 05:38 32.56899 -115.11643 1304 ft 118 kts 303°
2026-04-22 05:38 32.57373 -115.12365 1440 ft 109 kts 308°
2026-04-22 05:38 32.57829 -115.13086 1420 ft 111 kts 299°
2026-04-22 05:38 32.58226 -115.13887 1381 ft 115 kts 297°
2026-04-22 05:39 32.58615 -115.14707 1355 ft 116 kts 299°
2026-04-22 05:39 32.59048 -115.15536 1378 ft 118 kts 299°
2026-04-22 05:39 32.59457 -115.16374 1412 ft 113 kts 296°
2026-04-22 05:39 32.59868 -115.17211 1282 ft 118 kts 298°
2026-04-22 05:40 32.60238 -115.18039 1069 ft 114 kts 296°
2026-04-22 05:40 32.60617 -115.18898 905 ft 117 kts 297°
2026-04-22 05:40 32.61028 -115.19763 789 ft 118 kts 297°
2026-04-22 05:40 32.61415 -115.20606 644 ft 118 kts 298°
2026-04-22 05:41 32.61819 -115.21474 456 ft 121 kts 297°
2026-04-22 05:41 32.62209 -115.22345 270 ft 117 kts 297°
2026-04-22 05:41 32.62595 -115.23163 99 ft 111 kts 297°
2026-04-22 05:41 32.62906 -115.23834 71 ft 67 kts 298°
2026-04-22 05:42 32.63055 -115.24145 83 ft 29 kts 301°
2026-04-22 05:42 32.63150 -115.24364 84 ft 30 kts 295°
2026-04-22 05:42 32.63231 -115.24547 81 ft 21 kts 297°
2026-04-22 05:42 32.63224 -115.24645 80 ft 14 kts 207°
2026-04-22 05:43 32.63158 -115.24689 83 ft 7 kts 212°
2026-04-22 05:43 32.63104 -115.24723 82 ft 10 kts 207°
2026-04-22 05:43 32.63088 -115.24733 80 ft 3 kts 207°
2026-04-22 05:43 32.63044 -115.24761 80 ft 12 kts 208°
2026-04-22 05:44 32.62982 -115.24771 73 ft 7 kts 152°
2026-04-22 05:44 32.62941 -115.24784 70 ft 6 kts 216°
2026-04-22 05:44 32.62929 -115.24793 74 ft 0 kts 206°